Time,TemperatureF,DewpointF,PressureIn,WindDirection,WindDirectionDegrees,WindSpeedMPH,WindSpeedGustMPH,Humidity,HourlyPrecipIn,Conditions,Clouds,dailyrainin,SoftwareType,DateUTC
2013-02-04 00:02:00,59.8,53.3,29.98,NW,317,0.0,0.0,79,0.00,CLR,,0.00,WeatherDisplay:10.37,2013-02-04 06:02:00,
2013-02-04 00:07:00,59.7,53.5,29.98,NW,317,0.0,1.2,80,0.00,CLR,,0.00,WeatherDisplay:10.37,2013-02-04 06:07:00,
2013-02-04 00:12:00,59.6,53.4,29.98,NW,317,0.0,0.0,80,0.00,CLR,,0.00,WeatherDisplay:10.37,2013-02-04 06:12:00,
2013-02-04 00:17:00,59.5,53.3,29.99,NW,317,0.0,0.0,80,0.00,CLR,,0.00,WeatherDisplay:10.37,2013-02-04 06:17:00,
2013-02-04 00:22:00,59.4,53.6,29.98,NW,318,0.1,1.2,81,0.00,CLR,,0.00,WeatherDisplay:10.37,2013-02-04 06:22:00,
2013-02-04 00:27:00,59.3,53.8,29.98,NW,318,0.0,0.0,82,0.00,CLR,,0.00,WeatherDisplay:10.37,2013-02-04 06:27:00,
2013-02-04 00:32:00,59.2,53.7,29.98,NW,318,0.0,0.0,82,0.00,CLR,,0.00,WeatherDisplay:10.37,2013-02-04 06:32:00,
2013-02-04 00:37:00,59.2,53.7,29.97,NW,313,0.0,0.0,82,0.00,CLR,,0.00,WeatherDisplay:10.37,2013-02-04 06:37:00,
2013-02-04 00:42:00,59.2,54.0,29.97,SSW,207,0.4,2.0,83,0.00,CLR,,0.00,WeatherDisplay:10.37,2013-02-04 06:42:00,
2013-02-04 00:47:00,59.1,53.9,29.97,SSW,207,0.0,1.2,83,0.00,CLR,,0.00,WeatherDisplay:10.37,2013-02-04 06:47:00,
2013-02-04 00:52:00,59.1,54.3,29.96,SSE,158,0.0,0.0,84,0.00,CLR,,0.00,WeatherDisplay:10.37,2013-02-04 06:52:00,
2013-02-04 00:57:00,59.1,54.3,29.96,SSE,158,0.0,0.0,84,0.00,CLR,,0.00,WeatherDisplay:10.37,2013-02-04 06:57:00,
2013-02-04 01:02:00,59.1,54.3,29.96,SW,225,0.0,0.0,84,0.00,CLR,,0.00,WeatherDisplay:10.37,2013-02-04 07:02:00,
2013-02-04 01:07:00,59.1,54.6,29.96,SW,225,0.0,0.0,85,0.00,CLR,,0.00,WeatherDisplay:10.37,2013-02-04 07:07:00,
2013-02-04 01:12:00,59.1,54.6,29.96,SW,225,0.0,0.0,85,0.00,CLR,,0.00,WeatherDisplay:10.37,2013-02-04 07:12:00,
2013-02-04 01:17:00,59.1,54.6,29.96,SW,225,0.0,0.0,85,0.00,CLR,,0.00,WeatherDisplay:10.37,2013-02-04 07:17:00,
2013-02-04 01:22:00,59.1,54.6,29.96,SSW,210,0.1,2.3,85,0.00,CLR,,0.00,WeatherDisplay:10.37,2013-02-04 07:22:00,
2013-02-04 01:27:00,59.1,54.9,29.96,SW,236,0.1,1.2,86,0.00,CLR,,0.00,WeatherDisplay:10.37,2013-02-04 07:27:00,
2013-02-04 01:32:00,59.2,55.0,29.95,SSW,207,0.0,0.0,86,0.00,CLR,,0.00,WeatherDisplay:10.37,2013-02-04 07:32:00,
2013-02-04 01:37:00,59.2,55.0,29.96,SE,143,0.1,1.2,86,0.00,CLR,,0.00,WeatherDisplay:10.37,2013-02-04 07:37:00,
2013-02-04 01:42:00,59.3,55.4,29.95,SE,127,0.0,1.2,87,0.00,CLR,,0.00,WeatherDisplay:10.37,2013-02-04 07:42:00,
2013-02-04 01:47:00,59.3,55.4,29.95,SSW,197,0.0,1.2,87,0.00,CLR,,0.00,WeatherDisplay:10.37,2013-02-04 07:47:00,
2013-02-04 01:52:00,59.4,55.5,29.95,NE,40,0.0,0.0,87,0.00,CLR,,0.00,WeatherDisplay:10.37,2013-02-04 07:52:00,
2013-02-04 01:57:00,59.4,55.5,29.95,South,172,0.2,1.2,87,0.00,CLR,,0.00,WeatherDisplay:10.37,2013-02-04 07:57:00,
2013-02-04 02:02:00,59.4,55.5,29.95,WNW,293,0.1,3.5,87,0.00,CLR,,0.00,WeatherDisplay:10.37,2013-02-04 08:02:00,
2013-02-04 02:07:00,59.5,55.6,29.95,SSW,202,0.0,1.2,87,0.00,CLR,,0.00,WeatherDisplay:10.37,2013-02-04 08:07:00,
2013-02-04 02:12:00,59.5,55.6,29.95,SSW,199,0.0,1.2,87,0.00,CLR,,0.00,WeatherDisplay:10.37,2013-02-04 08:12:00,
2013-02-04 02:17:00,59.5,55.6,29.95,SSW,211,0.8,3.5,87,0.00,CLR,,0.00,WeatherDisplay:10.37,2013-02-04 08:17:00,
2013-02-04 02:22:00,59.6,56.0,29.95,SW,223,0.0,0.0,88,0.00,CLR,,0.00,WeatherDisplay:10.37,2013-02-04 08:22:00,
2013-02-04 02:27:00,59.6,56.0,29.95,SSW,197,0.2,2.3,88,0.00,CLR,,0.00,WeatherDisplay:10.37,2013-02-04 08:27:00,
2013-02-04 02:32:00,59.6,56.0,29.94,South,186,0.0,0.0,88,0.00,CLR,,0.00,WeatherDisplay:10.37,2013-02-04 08:32:00,
2013-02-04 02:37:00,59.7,56.1,29.94,South,189,0.0,0.0,88,0.00,CLR,,0.00,WeatherDisplay:10.37,2013-02-04 08:37:00,
2013-02-04 02:42:00,59.7,56.1,29.93,West,260,0.3,2.3,88,0.00,CLR,,0.00,WeatherDisplay:10.37,2013-02-04 08:42:00,
2013-02-04 02:47:00,59.7,56.1,29.94,SSW,201,0.0,0.0,88,0.00,CLR,,0.00,WeatherDisplay:10.37,2013-02-04 08:47:00,
2013-02-04 02:52:00,59.8,56.2,29.94,South,178,0.4,2.3,88,0.00,CLR,,0.00,WeatherDisplay:10.37,2013-02-04 08:52:00,
2013-02-04 02:57:00,59.8,56.2,29.93,East,90,0.0,1.2,88,0.00,CLR,,0.00,WeatherDisplay:10.37,2013-02-04 08:57:00,
2013-02-04 03:02:00,59.8,56.2,29.93,SE,126,0.1,1.2,88,0.00,CLR,,0.00,WeatherDisplay:10.37,2013-02-04 09:02:00,
2013-02-04 03:07:00,59.8,56.2,29.93,SSW,212,0.1,1.2,88,0.00,CLR,,0.00,WeatherDisplay:10.37,2013-02-04 09:07:00,
2013-02-04 03:12:00,59.8,56.2,29.93,SW,221,0.0,0.0,88,0.00,CLR,,0.00,WeatherDisplay:10.37,2013-02-04 09:12:00,
2013-02-04 03:17:00,59.8,56.2,29.93,SW,221,0.0,0.0,88,0.00,CLR,,0.00,WeatherDisplay:10.37,2013-02-04 09:17:00,
2013-02-04 03:22:00,59.8,56.6,29.92,SW,220,0.4,1.2,89,0.00,CLR,,0.00,WeatherDisplay:10.37,2013-02-04 09:22:00,
2013-02-04 03:27:00,59.8,56.6,29.92,South,178,0.0,0.0,89,0.00,CLR,,0.00,WeatherDisplay:10.37,2013-02-04 09:27:00,
2013-02-04 03:32:00,59.8,56.6,29.92,SW,231,0.1,1.2,89,0.00,CLR,,0.00,WeatherDisplay:10.37,2013-02-04 09:32:00,
2013-02-04 03:37:00,59.8,56.6,29.92,ESE,108,0.1,1.2,89,0.00,CLR,,0.00,WeatherDisplay:10.37,2013-02-04 09:37:00,
2013-02-04 03:42:00,59.8,56.6,29.92,ESE,108,0.0,0.0,89,0.00,CLR,,0.00,WeatherDisplay:10.37,2013-02-04 09:42:00,
2013-02-04 03:47:00,59.8,56.6,29.92,ESE,106,0.0,0.0,89,0.00,CLR,,0.00,WeatherDisplay:10.37,2013-02-04 09:47:00,
2013-02-04 03:53:00,59.8,56.6,29.92,SW,216,0.6,3.5,89,0.00,CLR,,0.00,WeatherDisplay:10.37,2013-02-04 09:53:00,
2013-02-04 03:58:00,59.8,56.6,29.92,SSW,212,0.0,0.0,89,0.00,CLR,,0.00,WeatherDisplay:10.37,2013-02-04 09:58:00,
2013-02-04 04:03:00,59.8,56.6,29.92,SW,226,0.0,1.2,89,0.00,CLR,,0.00,WeatherDisplay:10.37,2013-02-04 10:03:00,
2013-02-04 04:08:00,59.8,56.6,29.92,SSW,193,0.4,2.3,89,0.00,CLR,,0.00,WeatherDisplay:10.37,2013-02-04 10:08:00,
2013-02-04 04:13:00,59.8,56.6,29.92,South,182,0.1,1.2,89,0.00,CLR,,0.00,WeatherDisplay:10.37,2013-02-04 10:13:00,
2013-02-04 04:18:00,59.8,56.6,29.92,SW,225,0.0,1.2,89,0.00,CLR,,0.00,WeatherDisplay:10.37,2013-02-04 10:18:00,
2013-02-04 04:23:00,59.8,56.6,29.92,WSW,239,0.0,0.0,89,0.00,CLR,,0.00,WeatherDisplay:10.37,2013-02-04 10:23:00,
2013-02-04 04:28:00,59.8,56.6,29.91,WSW,239,0.0,1.2,89,0.00,CLR,,0.00,WeatherDisplay:10.37,2013-02-04 10:28:00,
2013-02-04 04:33:00,59.8,56.6,29.91,WSW,239,0.0,0.0,89,0.00,CLR,,0.00,WeatherDisplay:10.37,2013-02-04 10:33:00,
2013-02-04 04:38:00,59.8,56.6,29.91,SSW,207,0.5,2.3,89,0.00,CLR,,0.00,WeatherDisplay:10.37,2013-02-04 10:38:00,
2013-02-04 04:43:00,59.8,56.9,29.91,SSW,207,0.0,1.2,90,0.00,CLR,,0.00,WeatherDisplay:10.37,2013-02-04 10:43:00,
2013-02-04 04:48:00,59.7,56.8,29.91,SSE,165,0.1,1.2,90,0.00,CLR,,0.00,WeatherDisplay:10.37,2013-02-04 10:48:00,
2013-02-04 04:53:00,59.7,56.8,29.91,SW,227,0.0,1.2,90,0.00,CLR,,0.00,WeatherDisplay:10.37,2013-02-04 10:53:00,
2013-02-04 04:58:00,59.7,56.8,29.91,South,179,0.0,0.0,90,0.00,CLR,,0.00,WeatherDisplay:10.37,2013-02-04 10:58:00,
2013-02-04 05:03:00,59.7,56.8,29.91,South,180,0.0,0.0,90,0.00,CLR,,0.00,WeatherDisplay:10.37,2013-02-04 11:03:00,
2013-02-04 05:08:00,59.6,56.7,29.91,South,180,0.0,0.0,90,0.00,CLR,,0.00,WeatherDisplay:10.37,2013-02-04 11:08:00,
2013-02-04 05:13:00,59.6,56.7,29.90,South,180,0.0,0.0,90,0.00,CLR,,0.00,WeatherDisplay:10.37,2013-02-04 11:13:00,
2013-02-04 05:18:00,59.6,56.4,29.90,South,180,0.0,0.0,89,0.00,CLR,,0.00,WeatherDisplay:10.37,2013-02-04 11:18:00,
2013-02-04 05:23:00,59.6,56.7,29.90,South,180,0.0,0.0,90,0.00,CLR,,0.00,WeatherDisplay:10.37,2013-02-04 11:23:00,
2013-02-04 05:28:00,59.5,56.6,29.90,South,180,0.0,0.0,90,0.00,CLR,,0.00,WeatherDisplay:10.37,2013-02-04 11:28:00,
2013-02-04 05:33:00,59.5,56.6,29.90,South,180,0.0,0.0,90,0.00,CLR,,0.00,WeatherDisplay:10.37,2013-02-04 11:33:00,
2013-02-04 05:38:00,59.4,56.5,29.91,South,180,0.0,0.0,90,0.00,CLR,,0.00,WeatherDisplay:10.37,2013-02-04 11:38:00,
2013-02-04 05:43:00,59.4,56.5,29.91,SSW,205,0.0,0.0,90,0.00,CLR,,0.00,WeatherDisplay:10.37,2013-02-04 11:43:00,
2013-02-04 05:48:00,59.3,56.4,29.91,SSW,205,0.0,0.0,90,0.00,CLR,,0.00,WeatherDisplay:10.37,2013-02-04 11:48:00,
2013-02-04 05:53:00,59.3,56.4,29.91,SSW,207,0.0,0.0,90,0.00,CLR,,0.00,WeatherDisplay:10.37,2013-02-04 11:53:00,
2013-02-04 05:58:00,59.3,56.4,29.91,SSW,207,0.0,0.0,90,0.00,CLR,,0.00,WeatherDisplay:10.37,2013-02-04 11:58:00,
2013-02-04 06:03:00,59.3,56.4,29.92,SSW,207,0.0,0.0,90,0.00,CLR,,0.00,WeatherDisplay:10.37,2013-02-04 12:03:00,
2013-02-04 06:08:00,59.2,56.3,29.92,SSW,207,0.0,0.0,90,0.00,CLR,,0.00,WeatherDisplay:10.37,2013-02-04 12:08:00,
2013-02-04 06:13:00,59.2,56.3,29.92,SSW,207,0.0,0.0,90,0.00,CLR,,0.00,WeatherDisplay:10.37,2013-02-04 12:13:00,
2013-02-04 06:18:00,59.2,56.3,29.91,SSW,207,0.0,0.0,90,0.00,CLR,,0.00,WeatherDisplay:10.37,2013-02-04 12:18:00,
2013-02-04 06:23:00,59.2,56.3,29.91,SSW,207,0.0,0.0,90,0.00,CLR,,0.00,WeatherDisplay:10.37,2013-02-04 12:23:00,
2013-02-04 06:28:00,59.2,56.3,29.91,SSW,207,0.0,0.0,90,0.00,CLR,,0.00,WeatherDisplay:10.37,2013-02-04 12:28:00,
2013-02-04 06:33:00,59.2,56.3,29.91,SSW,207,0.0,0.0,90,0.00,CLR,,0.00,WeatherDisplay:10.37,2013-02-04 12:33:00,
2013-02-04 06:38:00,59.2,56.3,29.91,SSW,207,0.0,0.0,90,0.00,CLR,,0.00,WeatherDisplay:10.37,2013-02-04 12:38:00,
2013-02-04 06:43:00,59.1,56.2,29.90,SSW,207,0.0,0.0,90,0.00,CLR,,0.00,WeatherDisplay:10.37,2013-02-04 12:43:00,
2013-02-04 06:48:00,59.1,56.2,29.90,SSW,207,0.0,0.0,90,0.00,CLR,,0.00,WeatherDisplay:10.37,2013-02-04 12:48:00,
2013-02-04 06:53:00,59.1,56.2,29.90,SSW,207,0.0,0.0,90,0.00,CLR,,0.00,WeatherDisplay:10.37,2013-02-04 12:53:00,
2013-02-04 06:58:00,59.1,56.2,29.90,SSW,207,0.0,0.0,90,0.00,CLR,,0.00,WeatherDisplay:10.37,2013-02-04 12:58:00,
2013-02-04 07:03:00,59.0,56.1,29.90,SSW,207,0.0,0.0,90,0.00,CLR,,0.00,WeatherDisplay:10.37,2013-02-04 13:03:00,
2013-02-04 07:08:00,59.0,56.1,29.91,SSW,207,0.0,0.0,90,0.00,CLR,,0.00,WeatherDisplay:10.37,2013-02-04 13:08:00,
2013-02-04 07:13:00,59.0,56.1,29.91,SSW,207,0.0,0.0,90,0.00,CLR,,0.00,WeatherDisplay:10.37,2013-02-04 13:13:00,
2013-02-04 07:18:00,59.0,56.1,29.91,SSW,207,0.0,0.0,90,0.00,CLR,,0.00,WeatherDisplay:10.37,2013-02-04 13:18:00,
2013-02-04 07:23:00,59.0,56.4,29.91,SSW,207,0.0,0.0,91,0.00,CLR,,0.00,WeatherDisplay:10.37,2013-02-04 13:23:00,
2013-02-04 07:28:00,59.0,56.4,29.91,SSW,207,0.0,0.0,91,0.00,CLR,,0.00,WeatherDisplay:10.37,2013-02-04 13:28:00,
2013-02-04 07:33:00,58.9,56.3,29.91,SSW,207,0.0,0.0,91,0.00,CLR,,0.00,WeatherDisplay:10.37,2013-02-04 13:33:00,
2013-02-04 07:38:00,58.9,56.3,29.91,SSW,207,0.0,0.0,91,0.00,CLR,,0.00,WeatherDisplay:10.37,2013-02-04 13:38:00,
2013-02-04 07:43:00,58.9,56.3,29.91,SSW,207,0.0,0.0,91,0.00,CLR,,0.00,WeatherDisplay:10.37,2013-02-04 13:43:00,
2013-02-04 07:48:00,58.9,56.3,29.91,SSW,207,0.0,0.0,91,0.00,CLR,,0.00,WeatherDisplay:10.37,2013-02-04 13:48:00,
2013-02-04 07:53:00,58.9,56.3,29.91,SSW,207,0.0,0.0,91,0.00,CLR,,0.00,WeatherDisplay:10.37,2013-02-04 13:53:00,
2013-02-04 07:58:00,58.9,56.3,29.91,SSW,207,0.0,0.0,91,0.00,CLR,,0.00,WeatherDisplay:10.37,2013-02-04 13:58:00,
2013-02-04 08:03:00,58.9,56.3,29.91,SSW,207,0.0,0.0,91,0.00,CLR,,0.00,WeatherDisplay:10.37,2013-02-04 14:03:00,
2013-02-04 08:08:00,58.9,56.3,29.91,SSW,207,0.0,0.0,91,0.00,CLR,,0.00,WeatherDisplay:10.37,2013-02-04 14:08:00,
2013-02-04 08:13:00,58.9,56.3,29.91,SSW,207,0.0,0.0,91,0.00,CLR,,0.00,WeatherDisplay:10.37,2013-02-04 14:13:00,
2013-02-04 08:18:00,58.9,56.6,29.91,SSW,207,0.0,0.0,92,0.00,CLR,,0.00,WeatherDisplay:10.37,2013-02-04 14:18:00,
2013-02-04 08:23:00,58.9,56.6,29.91,SSW,207,0.0,0.0,92,0.00,CLR,,0.00,WeatherDisplay:10.37,2013-02-04 14:23:00,
2013-02-04 08:28:00,58.9,56.6,29.91,SSW,207,0.0,0.0,92,0.00,CLR,,0.00,WeatherDisplay:10.37,2013-02-04 14:28:00,
2013-02-04 08:33:00,59.0,56.7,29.90,SSW,207,0.0,0.0,92,0.00,CLR,,0.00,WeatherDisplay:10.37,2013-02-04 14:33:00,
2013-02-04 08:38:00,59.1,56.8,29.91,SSW,207,0.0,0.0,92,0.00,CLR,,0.00,WeatherDisplay:10.37,2013-02-04 14:38:00,
2013-02-04 08:43:00,59.1,56.8,29.90,SSW,207,0.0,0.0,92,0.00,CLR,,0.00,WeatherDisplay:10.37,2013-02-04 14:43:00,
2013-02-04 08:48:00,59.1,56.8,29.91,SSW,207,0.0,0.0,92,0.00,CLR,,0.00,WeatherDisplay:10.37,2013-02-04 14:48:00,
2013-02-04 08:53:00,59.1,56.8,29.91,SSW,207,0.0,0.0,92,0.00,CLR,,0.00,WeatherDisplay:10.37,2013-02-04 14:53:00,
2013-02-04 08:58:00,59.2,56.9,29.91,SSW,207,0.0,0.0,92,0.00,CLR,,0.00,WeatherDisplay:10.37,2013-02-04 14:58:00,
2013-02-04 09:03:00,59.2,56.9,29.91,SSW,207,0.0,0.0,92,0.00,CLR,,0.00,WeatherDisplay:10.37,2013-02-04 15:03:00,
2013-02-04 09:08:00,59.3,57.0,29.91,SSW,207,0.0,0.0,92,0.00,CLR,,0.00,WeatherDisplay:10.37,2013-02-04 15:08:00,
2013-02-04 09:13:00,59.3,57.0,29.91,SSW,207,0.0,0.0,92,0.00,CLR,,0.00,WeatherDisplay:10.37,2013-02-04 15:13:00,
2013-02-04 09:18:00,59.3,57.0,29.91,SSW,207,0.0,0.0,92,0.00,CLR,,0.00,WeatherDisplay:10.37,2013-02-04 15:18:00,
2013-02-04 09:23:00,59.4,57.1,29.90,SSW,207,0.0,0.0,92,0.00,CLR,,0.00,WeatherDisplay:10.37,2013-02-04 15:23:00,
2013-02-04 09:28:00,59.4,57.4,29.90,SSW,207,0.0,0.0,93,0.00,CLR,,0.00,WeatherDisplay:10.37,2013-02-04 15:28:00,
2013-02-04 09:33:00,59.5,57.5,29.89,SSW,207,0.0,0.0,93,0.00,CLR,,0.00,WeatherDisplay:10.37,2013-02-04 15:33:00,
2013-02-04 09:38:00,59.6,57.6,29.87,SE,138,1.1,3.5,93,0.00,CLR,,0.00,WeatherDisplay:10.37,2013-02-04 15:38:00,
2013-02-04 09:43:00,59.7,57.7,29.87,SE,138,0.0,0.0,93,0.00,CLR,,0.00,WeatherDisplay:10.37,2013-02-04 15:43:00,
2013-02-04 09:48:00,59.8,57.8,29.88,SW,230,0.1,1.2,93,0.01,RA,,0.01,WeatherDisplay:10.37,2013-02-04 15:48:00,
2013-02-04 09:53:00,60.0,58.0,29.88,SW,230,0.0,0.0,93,0.01,RA,,0.01,WeatherDisplay:10.37,2013-02-04 15:53:00,
2013-02-04 09:58:00,60.1,58.1,29.89,West,259,0.4,2.3,93,0.01,,,0.01,WeatherDisplay:10.37,2013-02-04 15:58:00,
2013-02-04 10:03:00,60.2,58.2,29.89,West,259,0.0,0.0,93,0.01,CLR,,0.01,WeatherDisplay:10.37,2013-02-04 16:03:00,
2013-02-04 10:08:00,60.3,58.3,29.90,WSW,250,0.0,0.0,93,0.01,CLR,,0.01,WeatherDisplay:10.37,2013-02-04 16:08:00,
2013-02-04 10:13:00,60.3,58.3,29.90,WSW,250,0.0,0.0,93,0.01,CLR,,0.01,WeatherDisplay:10.37,2013-02-04 16:13:00,
2013-02-04 10:18:00,60.4,58.4,29.90,WSW,250,0.0,0.0,93,0.01,CLR,,0.01,WeatherDisplay:10.37,2013-02-04 16:18:00,
2013-02-04 10:23:00,60.4,58.4,29.90,WSW,250,0.0,0.0,93,0.01,CLR,,0.01,WeatherDisplay:10.37,2013-02-04 16:23:00,
2013-02-04 10:28:00,60.5,58.5,29.89,WSW,250,0.0,0.0,93,0.01,CLR,,0.01,WeatherDisplay:10.37,2013-02-04 16:28:00,
2013-02-04 10:33:00,60.5,58.5,29.89,WNW,292,0.0,0.0,93,0.01,CLR,,0.01,WeatherDisplay:10.37,2013-02-04 16:33:00,
2013-02-04 10:38:00,60.6,58.6,29.89,WNW,291,0.0,0.0,93,0.01,CLR,,0.01,WeatherDisplay:10.37,2013-02-04 16:38:00,
2013-02-04 10:43:00,60.8,58.8,29.89,SSW,213,0.0,0.0,93,0.01,CLR,,0.01,WeatherDisplay:10.37,2013-02-04 16:43:00,
2013-02-04 10:48:00,61.1,59.1,29.88,South,184,0.0,0.0,93,0.00,CLR,,0.01,WeatherDisplay:10.37,2013-02-04 16:48:00,
2013-02-04 10:53:00,61.3,59.0,29.89,WSW,243,0.2,1.2,92,0.00,CLR,,0.01,WeatherDisplay:10.37,2013-02-04 16:53:00,
2013-02-04 10:58:00,61.5,59.2,29.88,WNW,297,0.0,0.0,92,0.00,CLR,,0.01,WeatherDisplay:10.37,2013-02-04 16:58:00,
2013-02-04 11:03:00,61.8,59.5,29.88,WNW,294,0.0,0.0,92,0.00,CLR,,0.01,WeatherDisplay:10.37,2013-02-04 17:03:00,
2013-02-04 11:08:00,61.9,59.2,29.88,SSW,193,0.9,3.5,91,0.00,CLR,,0.01,WeatherDisplay:10.37,2013-02-04 17:08:00,
2013-02-04 11:13:00,62.1,59.4,29.88,SW,232,0.0,1.2,91,0.00,CLR,,0.01,WeatherDisplay:10.37,2013-02-04 17:13:00,
2013-02-04 11:18:00,62.3,59.3,29.87,South,182,0.7,2.3,90,0.00,CLR,,0.01,WeatherDisplay:10.37,2013-02-04 17:18:00,
2013-02-04 11:23:00,62.6,59.6,29.87,West,264,0.3,2.3,90,0.00,CLR,,0.01,WeatherDisplay:10.37,2013-02-04 17:23:00,
2013-02-04 11:28:00,63.0,59.7,29.87,SW,218,0.4,3.5,89,0.00,CLR,,0.01,WeatherDisplay:10.37,2013-02-04 17:28:00,
2013-02-04 11:33:00,63.4,60.1,29.87,SSW,213,2.0,3.5,89,0.00,CLR,,0.01,WeatherDisplay:10.37,2013-02-04 17:33:00,
2013-02-04 11:38:00,63.8,60.2,29.86,South,185,1.0,3.5,88,0.00,CLR,,0.01,WeatherDisplay:10.37,2013-02-04 17:38:00,
2013-02-04 11:43:00,64.1,60.2,29.86,SW,224,2.8,5.8,87,0.00,CLR,,0.01,WeatherDisplay:10.37,2013-02-04 17:43:00,
2013-02-04 11:48:00,64.6,60.3,29.86,South,187,1.7,5.8,86,0.00,CLR,,0.01,WeatherDisplay:10.37,2013-02-04 17:48:00,
2013-02-04 11:53:00,65.0,60.4,29.86,WSW,241,2.3,3.5,85,0.00,CLR,,0.01,WeatherDisplay:10.37,2013-02-04 17:53:00,
2013-02-04 11:58:00,65.5,60.5,29.86,NW,322,2.1,5.0,84,0.00,CLR,,0.01,WeatherDisplay:10.37,2013-02-04 17:58:00,
2013-02-04 12:03:00,66.2,60.9,29.85,South,185,0.5,3.5,83,0.00,CLR,,0.01,WeatherDisplay:10.37,2013-02-04 18:03:00,
2013-02-04 12:08:00,66.6,60.9,29.85,SW,221,2.0,3.5,82,0.00,CLR,,0.01,WeatherDisplay:10.37,2013-02-04 18:08:00,
2013-02-04 12:13:00,67.1,60.7,29.85,South,185,3.3,6.9,80,0.00,CLR,,0.01,WeatherDisplay:10.37,2013-02-04 18:13:00,
2013-02-04 12:18:00,67.4,60.3,29.85,SW,217,2.4,5.8,78,0.00,CLR,,0.01,WeatherDisplay:10.37,2013-02-04 18:18:00,
2013-02-04 12:23:00,67.7,60.2,29.85,SSW,207,1.8,3.5,77,0.00,CLR,,0.01,WeatherDisplay:10.37,2013-02-04 18:23:00,
2013-02-04 12:28:00,67.9,60.1,29.84,SSW,193,1.2,2.3,76,0.00,CLR,,0.01,WeatherDisplay:10.37,2013-02-04 18:28:00,
2013-02-04 12:33:00,68.1,59.9,29.84,WNW,288,2.5,5.0,75,0.00,CLR,,0.01,WeatherDisplay:10.37,2013-02-04 18:33:00,
2013-02-04 12:38:00,68.4,59.8,29.84,SW,221,1.7,4.6,74,0.00,CLR,,0.01,WeatherDisplay:10.37,2013-02-04 18:38:00,
2013-02-04 12:43:00,68.6,60.4,29.84,West,267,0.6,3.5,75,0.00,CLR,,0.01,WeatherDisplay:10.37,2013-02-04 18:43:00,
2013-02-04 12:48:00,68.8,60.2,29.83,SW,215,0.6,6.9,74,0.00,CLR,,0.01,WeatherDisplay:10.37,2013-02-04 18:48:00,
2013-02-04 12:53:00,69.1,60.1,29.83,SW,227,1.9,5.8,73,0.00,CLR,,0.01,WeatherDisplay:10.37,2013-02-04 18:53:00,
2013-02-04 12:58:00,69.3,60.3,29.83,SW,217,2.2,4.6,73,0.00,CLR,,0.01,WeatherDisplay:10.37,2013-02-04 18:58:00,
2013-02-04 13:03:00,69.5,60.1,29.83,WSW,248,1.5,9.2,72,0.00,CLR,,0.01,WeatherDisplay:10.37,2013-02-04 19:03:00,
2013-02-04 13:08:00,69.8,60.4,29.83,South,180,2.8,4.6,72,0.00,CLR,,0.01,WeatherDisplay:10.37,2013-02-04 19:08:00,
2013-02-04 13:13:00,70.1,60.3,29.82,SW,231,1.0,6.9,71,0.00,CLR,,0.01,WeatherDisplay:10.37,2013-02-04 19:13:00,
2013-02-04 13:18:00,70.3,60.4,29.82,SE,126,1.0,4.0,71,0.00,CLR,,0.01,WeatherDisplay:10.37,2013-02-04 19:18:00,
2013-02-04 13:23:00,70.5,59.8,29.82,South,186,2.7,6.9,69,0.00,CLR,,0.01,WeatherDisplay:10.37,2013-02-04 19:23:00,
2013-02-04 13:28:00,70.6,59.9,29.82,NNW,340,2.0,6.0,69,0.00,CLR,,0.01,WeatherDisplay:10.37,2013-02-04 19:28:00,
2013-02-04 13:33:00,70.6,59.9,29.81,West,270,0.8,3.5,69,0.00,CLR,,0.01,WeatherDisplay:10.37,2013-02-04 19:33:00,
2013-02-04 13:38:00,70.7,60.0,29.81,South,187,0.7,4.6,69,0.00,CLR,,0.01,WeatherDisplay:10.37,2013-02-04 19:38:00,
2013-02-04 13:43:00,70.8,60.1,29.81,SSW,203,0.9,3.5,69,0.00,CLR,,0.01,WeatherDisplay:10.37,2013-02-04 19:43:00,
2013-02-04 13:48:00,71.2,60.5,29.80,NW,321,1.4,4.0,69,0.00,CLR,,0.01,WeatherDisplay:10.37,2013-02-04 19:48:00,
2013-02-04 13:53:00,71.5,60.8,29.80,WSW,247,0.6,1.2,69,0.00,CLR,,0.01,WeatherDisplay:10.37,2013-02-04 19:53:00,
2013-02-04 13:58:00,72.0,60.4,29.80,NNW,341,2.7,4.6,67,0.00,CLR,,0.01,WeatherDisplay:10.37,2013-02-04 19:58:00,
2013-02-04 14:03:00,72.1,60.1,29.80,SW,230,2.6,8.1,66,0.00,CLR,,0.01,WeatherDisplay:10.37,2013-02-04 20:03:00,
2013-02-04 14:08:00,72.1,60.1,29.80,West,281,3.3,5.0,66,0.00,CLR,,0.01,WeatherDisplay:10.37,2013-02-04 20:08:00,
2013-02-04 14:13:00,71.9,59.9,29.80,NNW,336,1.8,4.0,66,0.00,CLR,,0.01,WeatherDisplay:10.37,2013-02-04 20:13:00,
2013-02-04 14:18:00,71.7,59.7,29.79,WNW,285,1.7,4.6,66,0.00,CLR,,0.01,WeatherDisplay:10.37,2013-02-04 20:18:00,
2013-02-04 14:23:00,71.6,59.6,29.79,SW,229,2.5,3.5,66,0.00,CLR,,0.01,WeatherDisplay:10.37,2013-02-04 20:23:00,
2013-02-04 14:28:00,71.7,59.7,29.79,SW,230,1.1,3.0,66,0.00,CLR,,0.01,WeatherDisplay:10.37,2013-02-04 20:28:00,
2013-02-04 14:33:00,71.9,59.9,29.79,West,278,1.5,2.0,66,0.00,CLR,,0.01,WeatherDisplay:10.37,2013-02-04 20:33:00,
2013-02-04 14:38:00,72.2,59.8,29.78,SW,225,0.1,2.0,65,0.00,CLR,,0.01,WeatherDisplay:10.37,2013-02-04 20:38:00,
2013-02-04 14:43:00,72.8,59.9,29.78,WSW,238,1.4,4.6,64,0.00,CLR,,0.01,WeatherDisplay:10.37,2013-02-04 20:43:00,
2013-02-04 14:48:00,73.4,60.0,29.78,SW,234,2.3,4.6,63,0.00,CLR,,0.01,WeatherDisplay:10.37,2013-02-04 20:48:00,
2013-02-04 14:53:00,74.0,60.2,29.78,SW,217,1.5,6.9,62,0.00,CLR,,0.01,WeatherDisplay:10.37,2013-02-04 20:53:00,
2013-02-04 14:58:00,74.7,59.9,29.77,North,350,3.0,4.6,60,0.00,CLR,,0.01,WeatherDisplay:10.37,2013-02-04 20:58:00,
2013-02-04 15:03:00,75.0,59.7,29.77,SE,130,1.3,3.5,59,0.00,CLR,,0.01,WeatherDisplay:10.37,2013-02-04 21:03:00,
2013-02-04 15:08:00,75.2,59.9,29.77,SW,227,0.9,3.5,59,0.00,CLR,,0.01,WeatherDisplay:10.37,2013-02-04 21:08:00,
2013-02-04 15:13:00,75.6,59.8,29.77,SW,235,1.8,4.6,58,0.00,CLR,,0.01,WeatherDisplay:10.37,2013-02-04 21:13:00,
2013-02-04 15:18:00,75.6,59.8,29.76,South,170,0.2,2.3,58,0.00,CLR,,0.01,WeatherDisplay:10.37,2013-02-04 21:18:00,
2013-02-04 15:23:00,75.8,60.0,29.76,South,170,0.0,0.0,58,0.00,CLR,,0.01,WeatherDisplay:10.37,2013-02-04 21:23:00,
2013-02-04 15:28:00,75.8,60.0,29.76,South,170,0.0,0.0,58,0.00,CLR,,0.01,WeatherDisplay:10.37,2013-02-04 21:28:00,
2013-02-04 15:33:00,75.8,60.0,29.76,South,170,0.0,0.0,58,0.00,CLR,,0.01,WeatherDisplay:10.37,2013-02-04 21:33:00,
2013-02-04 15:38:00,75.8,60.0,29.76,South,170,0.0,0.0,58,0.00,CLR,,0.01,WeatherDisplay:10.37,2013-02-04 21:38:00,
2013-02-04 15:43:00,75.8,60.0,29.76,South,170,0.0,0.0,58,0.00,CLR,,0.01,WeatherDisplay:10.37,2013-02-04 21:43:00,
2013-02-04 15:48:00,75.8,60.0,29.76,South,170,0.0,0.0,58,0.00,CLR,,0.01,WeatherDisplay:10.37,2013-02-04 21:48:00,
2013-02-04 15:53:00,75.8,60.0,29.76,South,170,0.0,0.0,58,0.00,CLR,,0.01,WeatherDisplay:10.37,2013-02-04 21:53:00,
2013-02-04 15:58:00,75.8,60.0,29.76,South,170,0.0,0.0,58,0.00,CLR,,0.01,WeatherDisplay:10.37,2013-02-04 21:58:00,
2013-02-04 16:03:00,75.8,60.0,29.76,South,170,0.0,0.0,58,0.00,CLR,,0.01,WeatherDisplay:10.37,2013-02-04 22:03:00,
2013-02-04 16:08:00,75.8,60.0,29.76,South,170,0.0,0.0,58,0.00,CLR,,0.01,WeatherDisplay:10.37,2013-02-04 22:08:00,
2013-02-04 16:13:00,75.8,60.0,29.76,South,170,0.0,0.0,58,0.00,CLR,,0.01,WeatherDisplay:10.37,2013-02-04 22:13:00,
2013-02-04 16:18:00,75.8,60.0,29.76,South,170,0.0,0.0,58,0.00,CLR,,0.01,WeatherDisplay:10.37,2013-02-04 22:18:00,
2013-02-04 16:23:00,75.8,60.0,29.76,South,170,0.0,0.0,58,0.00,CLR,,0.01,WeatherDisplay:10.37,2013-02-04 22:23:00,
2013-02-04 16:28:00,75.8,60.0,29.76,South,170,0.0,0.0,58,0.00,CLR,,0.01,WeatherDisplay:10.37,2013-02-04 22:28:00,
2013-02-04 16:33:00,75.8,60.0,29.76,South,170,0.0,0.0,58,0.00,CLR,,0.01,WeatherDisplay:10.37,2013-02-04 22:33:00,
2013-02-04 16:38:00,75.8,60.0,29.76,South,170,0.0,0.0,58,0.00,CLR,,0.01,WeatherDisplay:10.37,2013-02-04 22:38:00,
2013-02-04 16:43:00,75.8,60.0,29.76,South,170,0.0,0.0,58,0.00,CLR,,0.01,WeatherDisplay:10.37,2013-02-04 22:43:00,
2013-02-04 16:48:00,75.8,60.0,29.76,South,170,0.0,0.0,58,0.00,CLR,,0.01,WeatherDisplay:10.37,2013-02-04 22:48:00,
2013-02-04 16:53:00,75.8,60.0,29.76,South,170,0.0,0.0,58,0.00,CLR,,0.01,WeatherDisplay:10.37,2013-02-04 22:53:00,
2013-02-04 16:58:00,75.8,60.0,29.76,South,170,0.0,0.0,58,0.00,CLR,,0.01,WeatherDisplay:10.37,2013-02-04 22:58:00,
2013-02-04 17:03:00,75.8,60.0,29.76,South,170,0.0,0.0,58,0.00,CLR,,0.01,WeatherDisplay:10.37,2013-02-04 23:03:00,
2013-02-04 17:08:00,75.8,60.0,29.76,South,170,0.0,0.0,58,0.00,CLR,,0.01,WeatherDisplay:10.37,2013-02-04 23:08:00,
2013-02-04 17:13:00,75.8,60.0,29.76,South,170,0.0,0.0,58,0.00,CLR,,0.01,WeatherDisplay:10.37,2013-02-04 23:13:00,
2013-02-04 17:18:00,75.8,60.0,29.76,South,170,0.0,0.0,58,0.00,CLR,,0.01,WeatherDisplay:10.37,2013-02-04 23:18:00,
2013-02-04 17:23:00,75.8,60.0,29.76,South,170,0.0,0.0,58,0.00,CLR,,0.01,WeatherDisplay:10.37,2013-02-04 23:23:00,
2013-02-04 17:28:00,75.8,60.0,29.76,South,170,0.0,0.0,58,0.00,CLR,,0.01,WeatherDisplay:10.37,2013-02-04 23:28:00,
2013-02-04 17:33:00,75.8,60.0,29.76,South,170,0.0,0.0,58,0.00,CLR,,0.01,WeatherDisplay:10.37,2013-02-04 23:33:00,
2013-02-04 17:38:00,75.8,60.0,29.76,South,170,0.0,0.0,58,0.00,CLR,,0.01,WeatherDisplay:10.37,2013-02-04 23:38:00,
2013-02-04 17:43:00,75.8,60.0,29.76,South,170,0.0,0.0,58,0.00,CLR,,0.01,WeatherDisplay:10.37,2013-02-04 23:43:00,
2013-02-04 17:48:00,75.8,60.0,29.76,South,170,0.0,0.0,58,0.00,CLR,,0.01,WeatherDisplay:10.37,2013-02-04 23:48:00,
2013-02-04 17:53:00,75.8,60.0,29.76,South,170,0.0,0.0,58,0.00,CLR,,0.01,WeatherDisplay:10.37,2013-02-04 23:53:00,
2013-02-04 17:58:00,75.8,60.0,29.76,South,170,0.0,0.0,58,0.00,CLR,,0.01,WeatherDisplay:10.37,2013-02-04 23:58:00,
2013-02-04 18:03:00,75.8,60.0,29.76,South,170,0.0,0.0,58,0.00,CLR,,0.01,WeatherDisplay:10.37,2013-02-05 00:03:00,
2013-02-04 18:08:00,75.8,60.0,29.76,South,170,0.0,0.0,58,0.00,CLR,,0.01,WeatherDisplay:10.37,2013-02-05 00:08:00,
2013-02-04 18:13:00,75.8,60.0,29.76,South,170,0.0,0.0,58,0.00,CLR,,0.01,WeatherDisplay:10.37,2013-02-05 00:13:00,
2013-02-04 18:18:00,75.8,60.0,29.76,South,170,0.0,0.0,58,0.00,CLR,,0.01,WeatherDisplay:10.37,2013-02-05 00:18:00,
2013-02-04 18:23:00,75.8,60.0,29.76,South,170,0.0,0.0,58,0.00,CLR,,0.01,WeatherDisplay:10.37,2013-02-05 00:23:00,
2013-02-04 18:28:00,75.8,60.0,29.76,South,170,0.0,0.0,58,0.00,CLR,,0.01,WeatherDisplay:10.37,2013-02-05 00:28:00,
2013-02-04 18:33:00,75.8,60.0,29.76,South,170,0.0,0.0,58,0.00,CLR,,0.01,WeatherDisplay:10.37,2013-02-05 00:33:00,
2013-02-04 18:38:00,75.8,60.0,29.76,South,170,0.0,0.0,58,0.00,CLR,,0.01,WeatherDisplay:10.37,2013-02-05 00:38:00,
2013-02-04 18:43:00,75.8,60.0,29.76,South,170,0.0,0.0,58,0.00,CLR,,0.01,WeatherDisplay:10.37,2013-02-05 00:43:00,
2013-02-04 18:48:00,75.8,60.0,29.76,South,170,0.0,0.0,58,0.00,CLR,,0.01,WeatherDisplay:10.37,2013-02-05 00:48:00,
2013-02-04 18:53:00,75.8,60.0,29.76,South,170,0.0,0.0,58,0.00,CLR,,0.01,WeatherDisplay:10.37,2013-02-05 00:53:00,
2013-02-04 18:58:00,75.8,60.0,29.76,South,170,0.0,0.0,58,0.00,CLR,,0.01,WeatherDisplay:10.37,2013-02-05 00:58:00,
2013-02-04 19:03:00,75.8,60.0,29.76,South,170,0.0,0.0,58,0.00,CLR,,0.01,WeatherDisplay:10.37,2013-02-05 01:03:00,
2013-02-04 19:08:00,75.8,60.0,29.76,South,170,0.0,0.0,58,0.00,CLR,,0.01,WeatherDisplay:10.37,2013-02-05 01:08:00,
2013-02-04 19:13:00,75.8,60.0,29.76,South,170,0.0,0.0,58,0.00,CLR,,0.01,WeatherDisplay:10.37,2013-02-05 01:13:00,
2013-02-04 19:18:00,75.8,60.0,29.76,South,170,0.0,0.0,58,0.00,CLR,,0.01,WeatherDisplay:10.37,2013-02-05 01:18:00,
2013-02-04 19:23:00,75.8,60.0,29.76,South,170,0.0,0.0,58,0.00,CLR,,0.01,WeatherDisplay:10.37,2013-02-05 01:23:00,
2013-02-04 19:28:00,75.8,60.0,29.76,South,170,0.0,0.0,58,0.00,CLR,,0.01,WeatherDisplay:10.37,2013-02-05 01:28:00,
2013-02-04 19:33:00,75.8,60.0,29.76,South,170,0.0,0.0,58,0.00,CLR,,0.01,WeatherDisplay:10.37,2013-02-05 01:33:00,
2013-02-04 19:38:00,75.8,60.0,29.76,South,170,0.0,0.0,58,0.00,CLR,,0.01,WeatherDisplay:10.37,2013-02-05 01:38:00,
2013-02-04 19:43:00,75.8,60.0,29.76,South,170,0.0,0.0,58,0.00,CLR,,0.01,WeatherDisplay:10.37,2013-02-05 01:43:00,
2013-02-04 19:48:00,75.8,60.0,29.76,South,170,0.0,0.0,58,0.00,CLR,,0.01,WeatherDisplay:10.37,2013-02-05 01:48:00,
2013-02-04 19:53:00,75.8,60.0,29.76,South,170,0.0,0.0,58,0.00,CLR,,0.01,WeatherDisplay:10.37,2013-02-05 01:53:00,
2013-02-04 19:58:00,75.8,60.0,29.76,South,170,0.0,0.0,58,0.00,CLR,,0.01,WeatherDisplay:10.37,2013-02-05 01:58:00,
2013-02-04 20:03:00,75.8,60.0,29.76,South,170,0.0,0.0,58,0.00,CLR,,0.01,WeatherDisplay:10.37,2013-02-05 02:03:00,
2013-02-04 20:08:00,75.8,60.0,29.76,South,170,0.0,0.0,58,0.00,CLR,,0.01,WeatherDisplay:10.37,2013-02-05 02:08:00,
2013-02-04 20:13:00,75.8,60.0,29.76,South,170,0.0,0.0,58,0.00,CLR,,0.01,WeatherDisplay:10.37,2013-02-05 02:13:00,
2013-02-04 20:18:00,75.8,60.0,29.76,South,170,0.0,0.0,58,0.00,CLR,,0.01,WeatherDisplay:10.37,2013-02-05 02:18:00,
2013-02-04 20:23:00,75.8,60.0,29.76,South,170,0.0,0.0,58,0.00,CLR,,0.01,WeatherDisplay:10.37,2013-02-05 02:23:00,
2013-02-04 20:28:00,75.8,60.0,29.76,South,170,0.0,0.0,58,0.00,CLR,,0.01,WeatherDisplay:10.37,2013-02-05 02:28:00,
2013-02-04 20:33:00,75.8,60.0,29.76,South,170,0.0,0.0,58,0.00,CLR,,0.01,WeatherDisplay:10.37,2013-02-05 02:33:00,
2013-02-04 20:38:00,75.8,60.0,29.76,South,170,0.0,0.0,58,0.00,CLR,,0.01,WeatherDisplay:10.37,2013-02-05 02:38:00,
2013-02-04 20:43:00,75.8,60.0,29.76,South,170,0.0,0.0,58,0.00,CLR,,0.01,WeatherDisplay:10.37,2013-02-05 02:43:00,
2013-02-04 20:48:00,75.8,60.0,29.76,South,170,0.0,0.0,58,0.00,CLR,,0.01,WeatherDisplay:10.37,2013-02-05 02:48:00,
2013-02-04 20:53:00,75.8,60.0,29.76,South,170,0.0,0.0,58,0.00,CLR,,0.01,WeatherDisplay:10.37,2013-02-05 02:53:00,
2013-02-04 20:58:00,75.8,60.0,29.76,South,170,0.0,0.0,58,0.00,CLR,,0.01,WeatherDisplay:10.37,2013-02-05 02:58:00,
2013-02-04 21:03:00,75.8,60.0,29.76,South,170,0.0,0.0,58,0.00,CLR,,0.01,WeatherDisplay:10.37,2013-02-05 03:03:00,
2013-02-04 21:08:00,75.8,60.0,29.76,South,170,0.0,0.0,58,0.00,CLR,,0.01,WeatherDisplay:10.37,2013-02-05 03:08:00,
2013-02-04 21:13:00,75.8,60.0,29.76,South,170,0.0,0.0,58,0.00,CLR,,0.01,WeatherDisplay:10.37,2013-02-05 03:13:00,
2013-02-04 21:18:00,75.8,60.0,29.76,South,170,0.0,0.0,58,0.00,CLR,,0.01,WeatherDisplay:10.37,2013-02-05 03:18:00,
2013-02-04 21:23:00,75.8,60.0,29.76,South,170,0.0,0.0,58,0.00,CLR,,0.01,WeatherDisplay:10.37,2013-02-05 03:23:00,
2013-02-04 21:28:00,75.8,60.0,29.76,South,170,0.0,0.0,58,0.00,CLR,,0.01,WeatherDisplay:10.37,2013-02-05 03:28:00,
2013-02-04 21:33:00,75.8,60.0,29.76,South,170,0.0,0.0,58,0.00,CLR,,0.01,WeatherDisplay:10.37,2013-02-05 03:33:00,
2013-02-04 21:38:00,75.8,60.0,29.76,South,170,0.0,0.0,58,0.00,CLR,,0.01,WeatherDisplay:10.37,2013-02-05 03:38:00,
2013-02-04 21:43:00,75.8,60.0,29.76,South,170,0.0,0.0,58,0.00,CLR,,0.01,WeatherDisplay:10.37,2013-02-05 03:43:00,
2013-02-04 21:48:00,75.8,60.0,29.76,South,170,0.0,0.0,58,0.00,CLR,,0.01,WeatherDisplay:10.37,2013-02-05 03:48:00,
2013-02-04 21:53:00,75.8,60.0,29.76,South,170,0.0,0.0,58,0.00,CLR,,0.01,WeatherDisplay:10.37,2013-02-05 03:53:00,
2013-02-04 21:58:00,75.8,60.0,29.76,South,170,0.0,0.0,58,0.00,CLR,,0.01,WeatherDisplay:10.37,2013-02-05 03:58:00,
2013-02-04 22:03:00,75.8,60.0,29.76,South,170,0.0,0.0,58,0.00,CLR,,0.01,WeatherDisplay:10.37,2013-02-05 04:03:00,
2013-02-04 22:08:00,75.8,60.0,29.76,South,170,0.0,0.0,58,0.00,CLR,,0.01,WeatherDisplay:10.37,2013-02-05 04:08:00,
2013-02-04 22:13:00,75.8,60.0,29.76,South,170,0.0,0.0,58,0.00,CLR,,0.01,WeatherDisplay:10.37,2013-02-05 04:13:00,
2013-02-04 22:18:00,75.8,60.0,29.76,South,170,0.0,0.0,58,0.00,CLR,,0.01,WeatherDisplay:10.37,2013-02-05 04:18:00,
2013-02-04 22:23:00,75.8,60.0,29.76,South,170,0.0,0.0,58,0.00,CLR,,0.01,WeatherDisplay:10.37,2013-02-05 04:23:00,
2013-02-04 22:28:00,75.8,60.0,29.76,South,170,0.0,0.0,58,0.00,CLR,,0.01,WeatherDisplay:10.37,2013-02-05 04:28:00,
2013-02-04 22:33:00,75.8,60.0,29.76,South,170,0.0,0.0,58,0.00,CLR,,0.01,WeatherDisplay:10.37,2013-02-05 04:33:00,
2013-02-04 22:38:00,75.8,60.0,29.76,South,170,0.0,0.0,58,0.00,CLR,,0.01,WeatherDisplay:10.37,2013-02-05 04:38:00,
2013-02-04 22:43:00,75.8,60.0,29.76,South,170,0.0,0.0,58,0.00,CLR,,0.01,WeatherDisplay:10.37,2013-02-05 04:43:00,
2013-02-04 22:48:00,75.8,60.0,29.76,South,170,0.0,0.0,58,0.00,CLR,,0.01,WeatherDisplay:10.37,2013-02-05 04:48:00,
2013-02-04 22:53:00,75.8,60.0,29.76,South,170,0.0,0.0,58,0.00,CLR,,0.01,WeatherDisplay:10.37,2013-02-05 04:53:00,
2013-02-04 22:58:00,75.8,60.0,29.76,South,170,0.0,0.0,58,0.00,CLR,,0.01,WeatherDisplay:10.37,2013-02-05 04:58:00,
2013-02-04 23:00:00,75.8,60.0,29.76,South,170,0.0,0.0,58,0.00,CLR,,0.01,WeatherDisplay:10.37,2013-02-05 05:00:00,
2013-02-04 23:01:00,75.8,60.0,29.76,South,170,0.0,0.0,58,0.00,CLR,,0.01,WeatherDisplay:10.37,2013-02-05 05:01:00,
2013-02-04 23:06:00,75.8,60.0,29.76,South,170,0.0,0.0,58,0.00,CLR,,0.01,WeatherDisplay:10.37,2013-02-05 05:06:00,
2013-02-04 23:11:00,75.8,60.0,29.76,South,170,0.0,0.0,58,0.00,CLR,,0.01,WeatherDisplay:10.37,2013-02-05 05:11:00,
2013-02-04 23:16:00,75.8,60.0,29.76,South,170,0.0,0.0,58,0.00,CLR,,0.01,WeatherDisplay:10.37,2013-02-05 05:16:00,
2013-02-04 23:21:00,75.8,60.0,29.76,South,170,0.0,0.0,58,0.00,CLR,,0.01,WeatherDisplay:10.37,2013-02-05 05:21:00,
2013-02-04 23:26:00,75.8,60.0,29.76,South,170,0.0,0.0,58,0.00,CLR,,0.01,WeatherDisplay:10.37,2013-02-05 05:26:00,
2013-02-04 23:31:00,75.8,60.0,29.76,South,170,0.0,0.0,58,0.00,CLR,,0.01,WeatherDisplay:10.37,2013-02-05 05:31:00,
2013-02-04 23:36:00,75.8,60.0,29.76,South,170,0.0,0.0,58,0.00,CLR,,0.01,WeatherDisplay:10.37,2013-02-05 05:36:00,
2013-02-04 23:41:00,75.8,60.0,29.76,South,170,0.0,0.0,58,0.00,CLR,,0.01,WeatherDisplay:10.37,2013-02-05 05:41:00,
2013-02-04 23:46:00,75.8,60.0,29.76,South,170,0.0,0.0,58,0.00,CLR,,0.01,WeatherDisplay:10.37,2013-02-05 05:46:00,
2013-02-04 23:51:00,75.8,60.0,29.76,South,170,0.0,0.0,58,0.00,CLR,,0.01,WeatherDisplay:10.37,2013-02-05 05:51:00,
2013-02-04 23:56:00,75.8,60.0,29.76,South,170,0.0,0.0,58,0.00,CLR,,0.01,WeatherDisplay:10.37,2013-02-05 05:56:00,